Home   Weather   Kloten   Past weeks

Flag for Switzerland Past Weather in Kloten, Zurich, Switzerland — Yesterday and Last 2 Weeks

Now
34 °F

Clear.


Feels Like: 28 °F
Forecast: 42 / 59 °F
Wind: 7 mph from Northwest

Location: Zurich-Kloten

Current Time: Apr 24, 2017 at 4:05:29 am

Latest Report: Apr 24, 2017 at 3:20 am


Visibility: 10 mi

Pressure: 30.12 "Hg

Humidity: 81%

Dew Point: 28 °F

Location of KlotenLocation

Past Weather in Kloten — Graph

°F

Kloten Temperature Yesterday

Maximum temperature yesterday: 57 °F (at 5:50 pm)
Minimum temperature yesterday: 41 °F (at 6:50 am)
Average temperature yesterday: 49 °F

High & Low Weather Summary for the Past Weeks

 TemperatureHumidityPressure
High75 °F (Apr 9, 5:50 pm)100% (Apr 18, 1:50 am)30.51 "Hg (Apr 18, 1:50 am)
Low25 °F (Apr 21, 4:50 am)22% (Apr 9, 6:20 pm)29.95 "Hg (Apr 13, 5:20 pm)
Average48 °F65%30.19 "Hg
* Reported Apr 9 1:20 am — Apr 24 1:50 am, Kloten, Weather by CustomWeather, © 2017

Note: Actual official high and low records may vary slightly from our data, if they occured in-between our weather recording intervals... More about our weather records

Advertising

Kloten Weather History for the Previous 24 Hours

Scroll right to see more
 ConditionsComfort  
Time TempWeatherWind HumidityBarometerVisibility
1:50 am
Mon, Apr 24
37 °FClear.8 mph70%30.15 "Hg10 mi
1:20 am39 °FPassing clouds.8 mph65%30.15 "HgN/A
12:50 am43 °FPassing clouds.5 mph61%30.18 "HgN/A
12:20 am43 °FClear.3 mph61%30.18 "Hg10 mi
11:50 pm
Sun, Apr 23
46 °FPassing clouds.6 mph53%30.18 "HgN/A
11:20 pm46 °FPassing clouds.9 mph53%30.18 "HgN/A
10:50 pm46 °FPassing clouds.7 mph53%30.18 "HgN/A
10:20 pm48 °FClear.6 mph54%30.18 "Hg10 mi
9:50 pm48 °FClear.8 mph54%30.18 "Hg10 mi
9:20 pm50 °FClear.6 mph47%30.15 "Hg10 mi
8:50 pm52 °FClear.6 mph44%30.15 "Hg10 mi
8:20 pm52 °FSunny.6 mph47%30.15 "Hg10 mi
7:50 pm54 °FScattered clouds.7 mph41%30.15 "HgN/A
7:20 pm55 °FScattered clouds.7 mph38%30.15 "HgN/A
6:50 pm55 °FScattered clouds.3 mph38%30.15 "HgN/A
6:20 pm55 °FPassing clouds.5 mph38%30.15 "HgN/A
5:50 pm57 °FPassing clouds.5 mph39%30.15 "HgN/A
5:20 pm55 °FPassing clouds.3 mph38%30.15 "HgN/A
4:50 pm55 °FPassing clouds.3 mph41%30.15 "HgN/A
4:20 pm55 °FPassing clouds.3 mph38%30.15 "HgN/A
3:50 pm55 °FScattered clouds.3 mph38%30.18 "HgN/A
3:20 pm55 °FScattered clouds.2 mph41%30.18 "HgN/A
2:50 pm54 °FScattered clouds.5 mph44%30.18 "HgN/A
2:20 pm54 °FScattered clouds.5 mph44%30.21 "HgN/A
1:50 pm54 °FScattered clouds.5 mph47%30.21 "HgN/A
1:20 pm52 °FScattered clouds.6 mph47%30.21 "HgN/A
12:50 pm54 °FPartly sunny.3 mph47%30.21 "HgN/A
12:20 pm50 °FPartly sunny.2 mph54%30.21 "HgN/A
11:50 am50 °FPartly sunny.3 mph50%30.24 "HgN/A
11:20 am48 °FBroken clouds.3 mph54%30.24 "HgN/A
10:50 am48 °FScattered clouds.2 mph54%30.24 "HgN/A
10:20 am46 °FScattered clouds.5 mph57%30.24 "HgN/A
9:50 am46 °FScattered clouds.5 mph57%30.24 "HgN/A
9:20 am46 °FScattered clouds.6 mph57%30.24 "HgN/A
8:50 am46 °FPartly sunny.6 mph62%30.24 "HgN/A
8:20 am43 °FPartly sunny.6 mph71%30.24 "HgN/A
7:50 am43 °FPartly sunny.5 mph76%30.24 "HgN/A
7:20 am41 °FPartly sunny.3 mph81%30.21 "HgN/A
6:50 am41 °FPartly sunny.3 mph76%30.21 "HgN/A
6:20 am43 °FPassing clouds.2 mph71%30.21 "HgN/A
5:50 am43 °FPassing clouds.2 mph71%30.21 "HgN/A
5:20 am43 °FPartly cloudy.2 mph76%30.21 "HgN/A
4:50 am43 °FPassing clouds.3 mph76%30.21 "HgN/A
4:20 am43 °FPassing clouds.5 mph81%30.21 "HgN/A
Weather by CustomWeather, © 2017

See weather overviewHow to use our weather pages